Terminal Aerodrome Forecast
Issued by NWS

Home | Current Version | Previous Version | Text Only | Print | Product List | Glossary On
Versions: 1 2 3 4 5 6 7 8 9 10 11 12 13 14 15
000
FTUS43 KMQT 220500
TAFCMX
TAF
KCMX 220527Z 2206/2306 14007KT 1/4SM -SN FG OVC003
     FM220700 15007KT 3/4SM -SN BR OVC004
     FM220900 15007KT 3SM -SN OVC007
     FM221400 14008KT 5SM -SN OVC020
     FM221900 13008KT P6SM OVC025=

USA.gov is the U.S. government's official web portal to all federal, state and local government web resources and services.